Regional Weather Roundup
Issued by NWS Upton, NY

Current Version | Previous Version | Graphics & Text | Print | Product List | Glossary Off
Versions: 1 2 3 4 5 6 7 8 9 10 11 12 13 14 15 16 17 18 19 20 21 22 23 24 25 26 27

000
ASUS41 KOKX 151708
RWROKX

Regional Weather Roundup
National Weather Service New York NY
1200 PM EST MON JAN 15 2018

Note: "FAIR" indicates few or no clouds below 12,000 feet with no
significant weather and/or obstructions to visibility.

NYZ071-072-176-178-NJZ106-104-151800-
New York City Metro Area

CITY           SKY/WX    TMP DP  RH WIND       PRES   REMARKS
Central Park   FLURRIES  26  15  63 NE8       30.62F WCI  18
Bronx Bot Gard   N/A     27  14  59 E6        30.62F WCI  20
Bronx Lehman C   N/A     27  14  59 E10         N/A  WCI  17
LaGuardia Arpt PTSUNNY   26  16  65 NE18      30.61F WCI  13
Queens College   N/A     27  16  63 NE14        N/A  WCI  15
Kennedy Intl   PTSUNNY   26  16  65 NE16      30.61F WCI  14
Breezy Point     N/A    N/A N/A N/A NE15        N/A
Brooklyn Coll    N/A     30  16  55 N8          N/A  WCI  23
Staten Island    N/A     28  18  64 NE10        N/A  WCI  19
Newark/Liberty PTSUNNY   29  15  56 NE10      30.61F WCI  20
Teterboro      PTSUNNY   28  14  55 NE14G25   30.60F WCI  17
$$

NYZ177-179-078>081-151800-
Long Island New York

CITY           SKY/WX    TMP DP  RH WIND       PRES   REMARKS
Jones Beach      N/A    N/A N/A N/A NE20        N/A
Wantagh          N/A     27  18  69 N12         N/A  WCI  16
Matinecock Pt    N/A    N/A N/A N/A NE13        N/A
Farmingdale    CLOUDY    24  16  71 N15       30.60F WCI  11
MacArthur/ISP  CLOUDY    26  17  68 NE14      30.59F WCI  14
Shirley        CLOUDY    26  18  71 N12G18    30.59F WCI  16
Mt Sinai Harb    N/A    N/A N/A N/A NE12        N/A
Westhampton    CLOUDY    26  16  65 N14G23    30.59F WCI  14
East Hampton   CLOUDY    24  17  73 N10G17    30.58F WCI  13
Southold         N/A     27  18  69 NE14        N/A  WCI  15
Montauk          N/A     27  18  69 N14G23    30.59F WCI  16
$$

NYZ052-065-067-151800-
Hudson Valley

CITY           SKY/WX    TMP DP  RH WIND       PRES   REMARKS
White Plains   PTSUNNY   24  12  60 NE6       30.58F WCI  17
Larchmont Harb   N/A    N/A N/A N/A NE12        N/A
Croton On Huds   N/A    N/A N/A N/A E5          N/A
Somers           N/A     23  14  68 E5          N/A  WCI  17
Brewster         N/A     23  14  68 NE5         N/A  WCI  17
Newburgh       PTSUNNY   21  12  68 VRB5      30.63F WCI  15
Montgomery     PTSUNNY   20   8  60 N9        30.61F WCI   9
Otisville        N/A     21  10  63 NE7         N/A  WCI  13
Warwick          N/A     25  12  58 E5          N/A  WCI  19
Suffern          N/A     25  12  58 NE7         N/A  WCI  17
Poughkeepsie   CLOUDY    20   8  60 N8        30.65F WCI  10
Albany         FAIR      15   1  53 CALM      30.71F
$$

NJZ001-105-106-008-010-013-015-019>022-104-151800-
New Jersey

CITY           SKY/WX    TMP DP  RH WIND       PRES   REMARKS
Newark/Liberty PTSUNNY   29  15  56 NE10      30.61F WCI  20
Teterboro      PTSUNNY   28  14  55 NE14G25   30.60F WCI  17
Caldwell       FAIR      27  12  53 VRB6      30.61F WCI  20
Somerville     CLOUDY    29  15  56 E10G17    30.57F WCI  20
Linden         FAIR      31  15  51 E10       30.60F WCI  22
Perth Amboy      N/A    N/A N/A N/A NE12        N/A
Sussex         CLOUDY    23  10  57 NE9       30.58F WCI  13
Andover          N/A     22  10  60 VRB3      30.57F
Trenton        CLOUDY    30  16  56 E13       30.56F WCI  20
Millville      CLOUDY    32  24  72 NE8       30.53F WCI  25
Atlantic City  PTSUNNY   33  27  78 NE21G30   30.53F WCI  21
Wrightstown    CLOUDY    34  21  60 E9        30.52F WCI  26
Toms River     CLOUDY    30  25  81 E12       30.58F WCI  20
Belmar         CLOUDY    29  23  78 NE12      30.58F WCI  19
$$

PAZ047>061-062-071-151800-
Eastern Pennsylvania

CITY           SKY/WX    TMP DP  RH WIND       PRES   REMARKS
Philadelphia   CLOUDY    29  16  58 NE14      30.58F WCI  18
Allentown      CLOUDY    23   9  55 NE6       30.57F WCI  16
Scranton       CLOUDY    21  11  65 CALM      30.52F
$$

CTZ002-004>006-009-010-012-RIZ004-006-007-MAZ004-011-015-151800-
Southern New England

 In CT

CITY           SKY/WX    TMP DP  RH WIND       PRES   REMARKS
Bradley Intl   PTSUNNY   19   6  57 N10       30.66F WCI   7
Hartford       FLURRIES N/A N/A N/A N9        30.67F
Danbury        CLOUDY    23  12  62 NE8       30.61F WCI  14
Wtrbury/Oxford FLURRIES  18  10  71 NE9       30.60F WCI   7
Norwalk Harbor   N/A    N/A N/A N/A N12         N/A
Bridgeport     CLOUDY    25  12  58 N14       30.62F WCI  13
Meriden        CLOUDY    19   7  59 VRB7      30.65F WCI  10
New Haven      CLOUDY    22   9  57 N18       30.61F WCI   7
Chester        CLOUDY    21  10  63 N9G16     30.59F WCI  11
Groton         CLOUDY    22  11  62 N18G26    30.60F WCI   7
Willimantic    CLOUDY    20  11  68 NE8       30.64F WCI  10

 In RI

CITY           SKY/WX    TMP DP  RH WIND       PRES   REMARKS
Providence     FLURRIES  18  10  71 N16G24    30.65F WCI   3
Block Island   CLOUDY    22  18  85 N15G21    30.58F WCI   9
Westerly       CLOUDY    23  14  68 N15G22    30.61F WCI  10

In MA

CITY           SKY/WX    TMP DP  RH WIND       PRES   REMARKS
Boston         CLOUDY    16   7  67 NW12      30.68F WCI   3
Worcester      CLOUDY    14   1  56 N7        30.57F WCI   4
Westfield      FAIR      20   5  52 N10       30.66F WCI   9
Provincetown   FLURRIES  29  27  92 MISG      30.59
Nantucket      CLOUDY    37  29  72 N22G29    30.51F WCI  26
$$

ANZ330-335-338-340-345-350-353-355-151800-
Coastal Marine Observations


STATION/POSITION TIME  SKY/WX   TEMP    WIND        PRES    VSBY  WAVE
                                AIR SEA DIR/SP/G                  HT/PER
                 (UTC)          (F)     (DEG/KT/KT) (MB)    (MI)  (FT/S)
NY Harb Entrance 1650            27 42   40/ 17/ 21 1035.5          4/ 6
20 S Fire Island 1650            28 40   30/ 19/ 23 1035.1          6/ 7
15 E Barnegat Li 1630               41                N/A           7/ 7
Hudson Canyon    1550            38 50   50/ 19/ 25 1033.2          7/10
Kings Point      1642            24 32   70/  7/ 14 1037.9
Execution Rocks  NOT AVBL
Western LI Sound NOT AVBL
Central LI Sound 1615            23      30/ 19/ 23   N/A           3
Robbins Reef     1648            25      50/ 15/ 19 1036.9
$$


>>>>>>>>>>>>>>>>>>>>>>>>>>>> KEY <<<<<<<<<<<<<<<<<<<<<<<<<<<
>                                                          <
>     SKY/WX - Sky Condition/Present Weather               <
>     TMP    - Temperature in Fahrenheit                   <
>     DP     - Dew Point in Fahrenheit                     <
>     RH     - Relative Humidity in Percent                <
>     WIND   - Direction (from) and Speed in MPH           <
>     PRES   - Mean Sea Level Pressure (inches of Hg)      <
>     WCI    - Wind Chill Index                            <
>     VSB    - Visibility in Miles                         <
>     HX     - Heat Index                                  <
>     TC     - Temperature in Celsius                      <
>     VRB    - Varibale Wind Direction                     <
>                                                          <
>>>>>>>>>>>>>>>>>>>>>>>>>>>> KEY <<<<<<<<<<<<<<<<<<<<<<<<<<<




USA.gov is the U.S. government's official web portal to all federal, state and local government web resources and services.